Weather History for Oxford, MS

Change the Weather History Date:

Friday, February 28, 2014

  Actual Average Record
Temperature  
Mean Temperature 4 °C -  
Max Temperature 12 °C 13 °C 26 °C (1981)
Min Temperature -3 °C 0 °C -6 °C (1934)
Degree Days  
Heating Degree Days 26    
Moisture  
Dew Point -5 °C    
Average Humidity 55    
Maximum Humidity 93    
Minimum Humidity 22    
Precipitation  
Precipitation 1.27 mm - - ()
Sea Level Pressure  
Sea Level Pressure 1017 hPa    
Wind  
Wind Speed 5 km/h (SE)    
Max Wind Speed 16 km/h    
Max Gust Speed 27 km/h    
Visibility 15 kilometers    
Events Rain    
Averages and records for this station are not official NWS values.
T = Trace of Precipitation, MM = Missing Value Source: NWS Daily Summary

Daily Weather History Graph

Daily Weather History Graph

Search for Another Location

Airport:

Trip Planner

Search our weather history database for the weather conditions in past years. The results will help you decide how hot, cold, wet, or windy it might be!

Date:

Astronomy

Feb. 28, 2014 Rise Set
Actual Time 6:28 AM CST 5:53 PM CST
Civil Twilight 6:03 AM CST 6:18 PM CST
Nautical Twilight 5:33 AM CST 6:47 PM CST
Astronomical Twilight 5:04 AM CST 7:16 PM CST
Moon 5:42 AM CST (2/28) 5:29 PM CST (2/28)
Length of Visible Light 12h 15m
Length of Day
11h 25m
Waning Crescent, 1% of the Moon is Illuminated
Feb 28
Waning Crescent
Mar 1
New
Mar 8
First Quarter
Mar 16
Full
Mar 23
Last Quarter

Hourly Weather History & Observations

Time (CST) Temp. Windchill Dew Point Humidity Pressure Visibility Wind Dir Wind Speed Gust Speed Precip Events Conditions
12:15 AM -3.0 °C - -7.0 °C 74% 1017.5 hPa 16.1 km Calm Calm - N/A   Clear
12:35 AM -3.0 °C - -6.0 °C 80% 1017.8 hPa 16.1 km Calm Calm - N/A   Clear
12:55 AM -3.0 °C - -7.0 °C 74% 1017.8 hPa 16.1 km Calm Calm - N/A   Clear
1:15 AM -2.0 °C -4.9 °C -9.0 °C 59% 1017.8 hPa 16.1 km East 7.4 km/h / 2.1 m/s - N/A   Clear
1:35 AM -2.0 °C -4.9 °C -9.0 °C 59% 1017.5 hPa 16.1 km East 7.4 km/h / 2.1 m/s - N/A   Clear
1:55 AM -1.0 °C -3.7 °C -10.0 °C 51% 1017.5 hPa 16.1 km ESE 7.4 km/h / 2.1 m/s - N/A   Clear
2:15 AM 0.0 °C -1.8 °C -10.0 °C 48% 1017.5 hPa 16.1 km ESE 5.6 km/h / 1.5 m/s - N/A   Clear
2:35 AM 0.0 °C -1.8 °C -11.0 °C 44% 1017.5 hPa 16.1 km East 5.6 km/h / 1.5 m/s - N/A   Clear
2:55 AM -1.0 °C - -10.0 °C 51% 1017.5 hPa 16.1 km Calm Calm - N/A   Clear
3:15 AM -2.0 °C - -10.0 °C 55% 1017.5 hPa 16.1 km Calm Calm - N/A   Clear
3:35 AM -2.0 °C - -10.0 °C 55% 1017.5 hPa 16.1 km Calm Calm - N/A   Clear
3:55 AM -1.0 °C -3.0 °C -11.0 °C 47% 1017.8 hPa 16.1 km East 5.6 km/h / 1.5 m/s - N/A   Clear
4:15 AM -2.0 °C -4.1 °C -10.0 °C 55% 1017.8 hPa 16.1 km ENE 5.6 km/h / 1.5 m/s - N/A   Clear
4:35 AM -1.0 °C - -10.0 °C 51% 1017.8 hPa 16.1 km Calm Calm - N/A   Clear
4:55 AM -1.0 °C -3.7 °C -10.0 °C 51% 1018.2 hPa 16.1 km East 7.4 km/h / 2.1 m/s - N/A   Partly Cloudy
5:15 AM 0.0 °C -2.5 °C -10.0 °C 48% 1018.2 hPa 16.1 km ESE 7.4 km/h / 2.1 m/s - N/A   Partly Cloudy
5:35 AM 0.0 °C -2.5 °C -10.0 °C 48% 1018.2 hPa 16.1 km SE 7.4 km/h / 2.1 m/s - N/A   Partly Cloudy
5:55 AM 0.0 °C -1.8 °C -10.0 °C 48% 1018.5 hPa 16.1 km SE 5.6 km/h / 1.5 m/s - N/A   Mostly Cloudy
6:15 AM 0.0 °C -1.8 °C -10.0 °C 48% 1018.5 hPa 16.1 km SE 5.6 km/h / 1.5 m/s - N/A   Mostly Cloudy
6:35 AM 0.0 °C - -10.0 °C 48% 1018.8 hPa 16.1 km Calm Calm - N/A   Mostly Cloudy
6:55 AM 0.0 °C -1.8 °C -10.0 °C 48% 1019.2 hPa 16.1 km SE 5.6 km/h / 1.5 m/s - N/A   Scattered Clouds
7:15 AM 0.0 °C -1.8 °C -10.0 °C 48% 1018.8 hPa 16.1 km SE 5.6 km/h / 1.5 m/s - N/A   Partly Cloudy
7:35 AM 0.0 °C -3.1 °C -10.0 °C 48% 1018.8 hPa 12.9 km SE 9.3 km/h / 2.6 m/s - N/A   Clear
7:55 AM 1.0 °C -1.4 °C -10.0 °C 44% 1019.2 hPa 16.1 km SE 7.4 km/h / 2.1 m/s - N/A   Clear
8:15 AM 2.0 °C -1.2 °C -10.0 °C 41% 1019.5 hPa 4.8 km SE 11.1 km/h / 3.1 m/s - N/A   Haze
8:35 AM 3.0 °C 1.6 °C -9.0 °C 41% 1019.5 hPa 16.1 km SE 5.6 km/h / 1.5 m/s - N/A   Clear
8:55 AM 4.0 °C 2.1 °C -10.0 °C 36% 1019.2 hPa 16.1 km SE 7.4 km/h / 2.1 m/s - N/A   Partly Cloudy
9:15 AM 4.0 °C 2.1 °C -9.0 °C 39% 1019.2 hPa 16.1 km SE 7.4 km/h / 2.1 m/s - N/A   Partly Cloudy
9:35 AM 5.0 °C 2.8 °C -9.0 °C 36% 1018.8 hPa 16.1 km SSE 9.3 km/h / 2.6 m/s - N/A   Clear
9:55 AM 7.0 °C 6.2 °C -9.0 °C 31% 1018.8 hPa 16.1 km South 5.6 km/h / 1.5 m/s - N/A   Clear
10:15 AM 8.0 °C 6.1 °C -9.0 °C 29% 1019.2 hPa 16.1 km SSE 11.1 km/h / 3.1 m/s - N/A   Clear
10:35 AM 9.0 °C - -9.0 °C 27% 1018.8 hPa 16.1 km South 11.1 km/h / 3.1 m/s - N/A   Clear
10:55 AM 9.0 °C - -9.0 °C 27% 1019.5 hPa 14.5 km South 9.3 km/h / 2.6 m/s - N/A   Clear
11:15 AM 10.0 °C - -8.0 °C 28% 1019.2 hPa 16.1 km SSW 11.1 km/h / 3.1 m/s - N/A   Partly Cloudy
11:35 AM 10.0 °C - -9.0 °C 26% 1018.8 hPa 16.1 km South 11.1 km/h / 3.1 m/s - N/A   Mostly Cloudy
11:55 AM 10.0 °C - -9.0 °C 26% 1018.2 hPa 16.1 km SSW 13.0 km/h / 3.6 m/s - N/A   Mostly Cloudy
12:15 PM 10.0 °C - -9.0 °C 26% 1017.8 hPa 16.1 km SSE 7.4 km/h / 2.1 m/s - N/A   Mostly Cloudy
12:35 PM 10.0 °C - -9.0 °C 26% 1017.8 hPa 16.1 km SSE 5.6 km/h / 1.5 m/s - N/A   Mostly Cloudy
12:55 PM 11.0 °C - -7.0 °C 28% 1017.2 hPa 16.1 km ESE 7.4 km/h / 2.1 m/s - N/A   Overcast
1:15 PM 12.0 °C - -8.0 °C 24% 1016.5 hPa 16.1 km SSW 16.7 km/h / 4.6 m/s 27.8 km/h / 7.7 m/s N/A   Scattered Clouds
1:35 PM 12.0 °C - -8.0 °C 24% 1015.8 hPa 16.1 km SSE 7.4 km/h / 2.1 m/s - N/A   Clear
1:55 PM 12.0 °C - -8.0 °C 24% 1016.8 hPa 16.1 km SSW 14.8 km/h / 4.1 m/s - N/A   Partly Cloudy
2:15 PM 12.0 °C - -9.0 °C 22% 1016.5 hPa 16.1 km SSE 5.6 km/h / 1.5 m/s - N/A   Scattered Clouds
2:35 PM 11.0 °C - -8.0 °C 26% 1015.8 hPa 16.1 km South 9.3 km/h / 2.6 m/s - N/A   Partly Cloudy
2:55 PM 12.0 °C - -7.0 °C 26% 1015.5 hPa 16.1 km SSE 7.4 km/h / 2.1 m/s - N/A   Partly Cloudy
3:15 PM 10.0 °C - -5.0 °C 35% 1015.5 hPa 12.9 km South 9.3 km/h / 2.6 m/s - N/A Rain Light Rain
3:35 PM 9.0 °C - -3.0 °C 43% 1013.8 hPa 14.5 km SE 7.4 km/h / 2.1 m/s - N/A Rain Light Rain
3:55 PM 9.0 °C - -1.0 °C 50% 1016.8 hPa 14.5 km West 7.4 km/h / 2.1 m/s - N/A Rain Light Rain
4:15 PM 8.0 °C - 1.0 °C 62% 1016.8 hPa 8.0 km Calm Calm - N/A Rain Light Rain
4:35 PM 5.0 °C - 4.0 °C 93% 1015.8 hPa 4.8 km Calm Calm - 1.3 mm Rain Light Rain
4:55 PM 5.0 °C - 4.0 °C 93% 1016.1 hPa 14.5 km Calm Calm - 1.3 mm   Mostly Cloudy
5:15 PM 6.0 °C - 4.0 °C 87% 1016.1 hPa 14.5 km Calm Calm - N/A   Overcast
5:35 PM 5.0 °C - 4.0 °C 93% 1016.5 hPa 16.1 km Calm Calm - N/A   Overcast
5:55 PM 5.0 °C - 4.0 °C 93% 1016.8 hPa 16.1 km Calm Calm - N/A   Overcast
6:15 PM 6.0 °C 5.0 °C 3.0 °C 81% 1017.2 hPa 16.1 km South 5.6 km/h / 1.5 m/s - N/A   Overcast
6:35 PM 6.0 °C - 3.0 °C 81% 1016.8 hPa 16.1 km Calm Calm - N/A   Overcast
6:55 PM 6.0 °C 5.0 °C 3.0 °C 81% 1016.8 hPa 16.1 km SSE 5.6 km/h / 1.5 m/s - N/A   Overcast
7:15 PM 6.0 °C 5.0 °C 2.0 °C 76% 1016.8 hPa 16.1 km SSE 5.6 km/h / 1.5 m/s - N/A   Overcast
7:35 PM 6.0 °C 4.5 °C 2.0 °C 76% 1016.8 hPa 16.1 km ESE 7.4 km/h / 2.1 m/s - N/A   Overcast
7:55 PM 6.0 °C - 2.0 °C 76% 1016.8 hPa 16.1 km Calm Calm - N/A   Overcast
8:15 PM 6.0 °C 4.5 °C 2.0 °C 76% 1016.8 hPa 16.1 km ESE 7.4 km/h / 2.1 m/s - N/A   Overcast
8:35 PM 6.0 °C 4.5 °C 2.0 °C 76% 1017.2 hPa 16.1 km SE 7.4 km/h / 2.1 m/s - N/A   Overcast
8:55 PM 6.0 °C 5.0 °C 2.0 °C 76% 1017.2 hPa 16.1 km ESE 5.6 km/h / 1.5 m/s - N/A   Overcast
9:15 PM 6.0 °C 5.0 °C 2.0 °C 76% 1017.5 hPa 16.1 km ESE 5.6 km/h / 1.5 m/s - N/A   Overcast
9:35 PM 6.0 °C 4.5 °C 2.0 °C 76% 1017.5 hPa 16.1 km East 7.4 km/h / 2.1 m/s - N/A   Overcast
9:55 PM 6.0 °C - 2.0 °C 76% 1017.5 hPa 16.1 km Calm Calm - N/A   Overcast
10:15 PM 6.0 °C 4.5 °C 2.0 °C 76% 1017.5 hPa 16.1 km ESE 7.4 km/h / 2.1 m/s - N/A   Overcast
10:35 PM 6.0 °C 4.5 °C 2.0 °C 76% 1017.8 hPa 16.1 km SE 7.4 km/h / 2.1 m/s - N/A   Overcast
10:55 PM 6.0 °C - 2.0 °C 76% 1017.5 hPa 16.1 km Calm Calm - N/A   Overcast
11:15 PM 6.0 °C 5.0 °C 2.0 °C 76% 1017.8 hPa 16.1 km SE 5.6 km/h / 1.5 m/s - N/A   Overcast
11:35 PM 6.0 °C 5.0 °C 2.0 °C 76% 1017.8 hPa 16.1 km SSE 5.6 km/h / 1.5 m/s - N/A   Overcast
11:55 PM 6.0 °C 5.0 °C 2.0 °C 76% 1017.8 hPa 16.1 km SE 5.6 km/h / 1.5 m/s - N/A   Overcast